Estación municipal de Les Masies de Roda (Osona, Ter)

Consulta los datos en tiempo real de la estación municipal de Les Masies de Roda





Hora UTC 04:30
Temperatura 16.1 ºC
Suelo 15 cm 13.6 ºC
Humedad 85.2 %
Presión 1021.9 hPa
Pluja 0.0 mm
Velocidad viento 0.0 km/h
Dirección viento NNE
Radiación solar 258.7 W/m²

Datos diarios 2026-09-06



Hora UTC (invierno +1h; verano +2h)
Temperatura (ºC) Humedad (%) Presión (hPa) Velocidad viento (km/h) Precipitación (mm) Radiación solar (W/m²)
Hora UTC Aire Suelo 15 cm Humedad Presión Vel. Dir. Vel. Max Dir. Intent. máx 5 min. Rad. Sol.
00:05 19.1 16.6 74.0 1022.5 0.8 NNW 0.8 NNW 0.0 0.1
00:10 18.9 16.5 74.7 1022.3 0.0 NNE 0.0 NNW 0.0 0.1
00:15 18.8 16.3 75.5 1022.5 0.0 NNE 0.0 NNW 0.0 0.1
00:20 18.9 16.3 75.2 1022.3 0.0 NNE 0.0 NNW 0.0 0.1
00:25 18.9 16.2 74.6 1022.4 0.5 NE 2.5 NE 0.0 0.1
00:30 19.0 16.2 74.1 1022.4 1.2 ENE 3.2 ENE 0.0 0.1
00:35 19.1 16.1 72.9 1022.3 3.4 ENE 4.6 ENE 0.0 0.1
00:40 19.5 16.1 71.7 1022.4 0.9 ENE 2.8 ENE 0.0 0.1
00:45 19.2 16.2 72.4 1022.3 0.0 NNE 0.0 ENE 0.0 0.1
00:50 18.7 16.1 74.2 1022.4 0.0 NNE 0.0 ENE 0.0 0.1
00:55 18.5 15.9 75.2 1022.2 0.0 NNE 0.0 ENE 0.0 0.1
01:00 18.4 15.8 75.7 1022.4 0.7 E 2.5 ENE 0.0 0.1
01:05 18.4 15.7 75.8 1022.2 0.0 NNE 0.0 E 0.0 0.1
01:10 18.5 15.7 75.4 1022.3 0.0 NNE 0.0 E 0.0 0.1
01:15 18.5 15.7 75.5 1022.1 0.1 E 1.8 E 0.0 0.1
01:20 18.4 15.6 75.8 1022.2 0.0 NNE 0.0 E 0.0 0.1
01:25 18.3 15.6 77.1 1022.2 0.2 NW 1.8 NW 0.0 0.1
01:30 18.1 15.5 78.8 1022.2 0.0 NNE 0.0 NW 0.0 0.1
01:35 18.1 15.5 78.2 1022.2 0.0 NNE 0.0 NW 0.0 0.1
01:40 18.2 15.4 77.5 1022.1 0.0 NNE 0.0 NW 0.0 0.1
01:45 18.1 15.4 77.6 1022.2 1.3 NW 3.2 NW 0.0 0.1
01:50 17.8 15.4 78.8 1022.1 2.1 NW 2.8 WNW 0.0 0.1
01:55 17.7 15.3 79.1 1022.2 1.7 NW 2.8 NW 0.0 0.1
02:00 17.7 15.2 79.2 1022.1 0.0 NNE 0.0 NW 0.0 0.1
02:05 17.7 15.1 79.1 1022.3 0.0 NNE 0.0 NW 0.0 0.1
02:10 17.7 15.1 79.4 1022.1 0.0 NNE 0.0 NW 0.0 0.1
02:15 17.6 15.0 79.8 1022.3 0.0 NNE 1.1 NNE 0.0 0.1
02:20 17.5 15.0 80.0 1022.1 0.0 NNE 0.0 N 0.0 0.1
02:25 17.4 14.9 79.6 1022.2 0.0 NNE 0.0 N 0.0 0.1
02:30 17.1 14.8 81.0 1022.1 0.0 NNE 0.0 N 0.0 0.1
02:35 17.1 14.7 82.3 1022.2 0.0 NNE 0.0 N 0.0 157.7
02:40 17.0 14.6 82.7 1022.0 0.3 E 2.1 E 0.0 199.2
02:45 17.4 14.6 81.9 1022.1 1.3 ENE 2.5 ENE 0.0 247.4
02:50 17.5 14.7 80.3 1022.0 0.3 NE 2.8 NE 0.0 254.3
02:55 17.4 14.7 80.9 1022.0 0.0 NNE 0.0 NE 0.0 262.3
03:00 17.2 14.6 81.4 1022.1 0.0 NNE 0.0 NE 0.0 252.6
03:05 17.2 14.5 81.7 1022.1 0.0 NNE 0.0 NE 0.0 255.2
03:10 17.2 14.4 81.7 1022.1 0.0 NNE 0.0 NNE 0.0 256.0
03:15 17.1 14.3 82.1 1022.0 1.7 WNW 3.2 WNW 0.0 257.3
03:20 16.8 14.3 84.0 1022.1 1.9 WNW 2.8 WNW 0.0 260.7
03:25 16.8 14.2 83.9 1022.0 0.2 NNW 2.1 NW 0.0 269.0
03:30 17.0 14.2 82.7 1022.1 0.0 NNE 1.4 NNE 0.0 256.1
03:35 16.9 14.2 81.9 1021.9 0.0 NNE 0.0 N 0.0 252.2
03:40 16.6 14.1 83.5 1022.1 0.0 NNE 0.0 N 0.0 252.1
03:45 16.4 14.0 84.5 1021.9 0.0 NNE 0.0 N 0.0 249.5
03:50 16.4 14.0 84.7 1022.0 0.0 NNE 0.0 N 0.0 250.8
03:55 16.4 13.9 84.6 1021.8 0.0 NNE 0.0 N 0.0 254.6
04:00 16.5 13.9 84.9 1022.0 0.0 NNE 0.0 N 0.0 253.0
04:05 16.7 13.9 83.2 1021.8 0.0 NNE 0.0 N 0.0 256.8
04:10 16.6 13.9 83.8 1021.9 1.0 ENE 2.8 ENE 0.0 269.7
04:15 16.4 13.8 83.7 1021.8 1.0 ENE 2.5 ENE 0.0 253.9
04:20 16.3 13.7 84.9 1021.9 0.0 NNE 0.0 ENE 0.0 243.7
04:25 16.2 13.7 84.9 1021.7 0.0 NNE 0.0 NNE 0.0 257.9
04:30 16.1 13.6 85.2 1021.9 0.0 NNE 0.0 NNE 0.0 258.7
Máxima 19.5 16.6 85.2 1022.5 3.4 ENE 4.6 ENE 0.0 269.7
Mínima 16.1 13.6 71.7 1021.7
Total 0.0